User: anonymous
Location: Santa Barbara
(34.4500°N, 119.7700°W)
Time: 19:56:57
(UTC-07:00)
Language:

Cosmos 1892 Rocket - Orbit

View from above orbital plane
View from above orbital plane
View from above satellite
View from above satellite

Ground track
Ground track

The orbit data is extracted from the following two-line orbital elements,

1 18422U 87088B   14209.79150031  .00000184  00000-0  19964-4 0  3035
2 18422 082.5107 084.6304 0018433 313.5544 091.4701 14.82400145445577
Epoch (UTC): 28 July 2014 18:59:45
Eccentricity: 0.0018433
inclination: 82.5107°
perigee height: 609 km
apogee height: 634 km
right ascension of ascending node: 84.6304°
argument of perigee: 313.5544°
revolutions per day: 14.82400145
mean anomaly at epoch: 91.4701°
orbit number at epoch: 44557

The dashed part of the orbit path shows where the satellite is in the earth's shadow,  

DLR